DECAYED

CZ-6A DEB, 54314 (Decayed)

Orbit data source: Space-Track

CZ-6A DEB, 54314 was space debris in SSO originally from a launch on Fri, 11 Nov 2022 UTC launched from the Taiyaun Space Center, China (TSC). Debris objects in space refer to the collection of defunct objects orbiting the Earth. Examples of debris include non-operational satellites, rocket bodies, and fragments generated from explosions, collisions, or faulty payload assembly.

Not visible in the next 10 days
Identifier
54314, 2022-151BH
Orbit
Decayed
Country
Flag of CNCN / PRC
Related business
Manufacturer
SAST
Mission
Decayed spacecraft
Bus & Motor
Unknown
Mass
Unknown
Launch date (UTC)
2022-11-11 (3 years ago)
Launch vehicle
Unknown
Launch site
Taiyaun Space Center, China (TSC)
Object type
Payload
Rocket body
Debris
Shape & HBR
Unknown shape, 0.1 m
Radar Cross Section
Small (<0.1 m²)

Expand to show TLE details & history
Last TLE update: 10 months ago

TLE from 10 months ago
0 CZ-6A DEB
1 54314U 22151BH  25057.93163348  .23258021  31044-5  14269-1 0  9997
2 54314  98.5187 117.6240 0016274 262.7751  97.1683 16.17760809122181
Epoch: 2025-02-26T22:21Z
TLE epoch observation values (Epoch: 2025-02-26T22:21:33.132Z)
Latitude
-0.00005°
Longitude
-14.77813°
Altitude
230.183 km
Speed
7.768 km/s
True Right ascension
07h 50m 29s
True Declination
0° 00' 00"
Sunlit
Object was in full shadow at epoch
Visualization orbit readout
Latitude
Unknown
Longitude
Unknown
Altitude
Unknown
Speed
Unknown
Apparent Right ascension
Unknown
Apparent Declination
Unknown
Sunlit
N/A
Visualization observer readout
Local Sidereal Time
08:20:50
Azimuth
Unknown
Elevation
Unknown
Doppler factor
Unknown
Orbital elements
Apogee altitude
233.271 km
Perigee altitude
211.787 km
Semi-major axis
6,600.666 km
Eccentricity
0.00163
Inclination
98.5187°
RAAN
117.624°
Arg. of periapsis
262.7751°
True anomaly
97.35328°
Mean anomaly
97.1683°
Eccentric anomaly
97.2608°
Mean motion
4.04726 °/min
Orbital period
88.95 mins
BSTAR
0.014269
Loading maneuver chart data...
Computing Atmospheric mass density...
Loading historical data...
Loading historical data...
Loading historical data...
Loading historical data...
Loading historical data...
Loading historical data...
Loading historical data...

Documentation

Showing up to 5 results
|